Montross, Virginia, United States (22520)
Lat: 38.09N, Lon: 76.83W
Wx Zone: VAZ075
Local Info
Past Weather Observations for Sunday, September 28, 2014

NOTE: This archive is for the closest National Weather Service station to Montross. Information may differ from the station used for current weather conditions.

Click here for Long-term Archive

Time Weather Temperature Dewpoint Humidity Pressure Winds Precip Visibility
23:52
Clear
63°F / 17°C 59°F / 15°C 88% 30.04 in
(1017 mb)
SW 5.8 mph
(SW 9 kph)
- 10SM
22:52
Clear
61°F / 16°C 55°F / 13°C 83% 30.06 in
(1018 mb)
Calm - 10SM
21:52
Clear
61°F / 16°C 57°F / 14°C 88% 30.06 in
(1018 mb)
Calm - 10SM
20:52
Clear
63°F / 17°C 57°F / 14°C 83% 30.06 in
(1018 mb)
SSE 4.6 mph
(SSE 7 kph)
- 10SM
19:52
Clear
59°F / 15°C 55°F / 13°C 88% 30.09 in
(1019 mb)
Calm - 10SM
18:52
Clear
63°F / 17°C 57°F / 14°C 83% 30.06 in
(1018 mb)
Calm - 10SM
17:52
Clear
68°F / 20°C 57°F / 14°C 69% 30.06 in
(1018 mb)
Calm - 10SM
16:52
Mostly Cloudy
72°F / 22°C 54°F / 12°C 53% 30.09 in
(1019 mb)
SE 4.6 mph
(SE 7 kph)
- 10SM
15:52
Mostly Cloudy
75°F / 24°C 55°F / 13°C 50% 30.09 in
(1019 mb)
SE 5.8 mph
(SE 9 kph)
- 10SM
14:52
Mostly Cloudy
75°F / 24°C 57°F / 14°C 54% 30.09 in
(1019 mb)
SE 6.9 mph
(SE 11 kph)
- 10SM
13:52
Mostly Cloudy
77°F / 25°C 55°F / 13°C 47% 30.12 in
(1020 mb)
ESE 6.9 mph
(ESE 11 kph)
- 10SM
12:52
Mostly Cloudy
75°F / 24°C 55°F / 13°C 50% 30.12 in
(1020 mb)
ESE 5.8 mph
(ESE 9 kph)
- 10SM
11:52
Mostly Cloudy
75°F / 24°C 57°F / 14°C 54% 30.15 in
(1021 mb)
ESE 6.9 mph
(ESE 11 kph)
- 10SM
10:52
Mostly Cloudy
73°F / 23°C 63°F / 17°C 69% 30.18 in
(1022 mb)
SE 5.8 mph
(SE 9 kph)
- 10SM
09:52
Mostly Cloudy
72°F / 22°C 63°F / 17°C 73% 30.18 in
(1022 mb)
E 4.6 mph
(E 7 kph)
- 10SM
08:52
Mostly Cloudy
72°F / 22°C 63°F / 17°C 73% 30.18 in
(1022 mb)
E 3.5 mph
(E 6 kph)
- 10SM
07:52
Partly Cloudy
66°F / 19°C 63°F / 17°C 88% 30.21 in
(1023 mb)
NW 3.5 mph
(NW 6 kph)
- 10SM
06:52
Partly Cloudy
57°F / 14°C 55°F / 13°C 94% 30.21 in
(1023 mb)
SSW 5.8 mph
(SSW 9 kph)
- 7SM
05:52
Mostly Cloudy
54°F / 12°C 52°F / 11°C 94% 30.18 in
(1022 mb)
Calm - 8SM
05:05
Mostly Cloudy
Fog And Mist
54°F / 12°C 54°F / 12°C 100% 30.18 in
(1022 mb)
SSW 5.8 mph
(SSW 9 kph)
- 6SM
04:52
Clear
55°F / 13°C 54°F / 12°C 94% 30.18 in
(1022 mb)
SW 4.6 mph
(SW 7 kph)
- 7SM
03:52
Clear
55°F / 13°C 55°F / 13°C 100% 30.18 in
(1022 mb)
SSW 3.5 mph
(SSW 6 kph)
- 7SM
02:52
Clear
55°F / 13°C 54°F / 12°C 94% 30.18 in
(1022 mb)
W 4.6 mph
(W 7 kph)
- 7SM
01:52
Clear
55°F / 13°C 54°F / 12°C 94% 30.18 in
(1022 mb)
SSW 4.6 mph
(SSW 7 kph)
- 7SM
00:52
Clear
55°F / 13°C 54°F / 12°C 94% 30.18 in
(1022 mb)
SSW 4.6 mph
(SSW 7 kph)
- 9SM
Time Weather Temperature Dewpoint Humidity Pressure Winds Precip Visibility


Weather for websites

WeatherForYou.com, LLC is not responsible for any damages or problems caused by this service. Current weather conditions are obtained from the closest station including government and personal stations which may have varying degrees of accuracy. Weather forecasts are derived from the NOAA NDFD. Like all things, this site belongs to Jesus Christ... He just trusts me to maintain it. If you have any questions or comments email webmaster@weatherforyou.com

Copyright © 2014, WeatherForYou.com LLC. All rights reserved.